When you browse on this site, cookies collect data to enhance your experience and personalize the content and advertising you see.
Visit our Privacy Policy to learn more. By continuing to use the site, you agree to this use of cookies and data.
  • In Hungary
  • List of Countries
  • For 7 days
  • Water Temperature
  • Satellite Maps
  • Weather Map
  • News
  • Weather Widgets
  • user-avatar
    Login

    Hourly Weather Ermesinde

    Today, 21 July, Sunday

    Time Temperature Precipitation Wind Pressure Humidity
    00:00 +17°C° 0 mm 2 mps 756 mmHg 80%
    01:00 +17°C° 0 mm 2 mps 756 mmHg 81%
    02:00 +18°C° 0 mm 1 mps 755 mmHg 82%
    03:00 +18°C° 0 mm 1 mps 755 mmHg 82%
    04:00 +18°C° 0 mm 1 mps 755 mmHg 82%
    05:00 +18°C° 0 mm 1 mps 755 mmHg 81%
    06:00 +20°C° 0 mm 2 mps 755 mmHg 73%
    07:00 +23°C° 0 mm 2 mps 756 mmHg 64%
    08:00 +26°C° 0 mm 2 mps 756 mmHg 55%
    09:00 +28°C° 0 mm 3 mps 756 mmHg 49%
    10:00 +30°C° 0 mm 3 mps 756 mmHg 44%
    11:00 +32°C° 0 mm 4 mps 755 mmHg 38%
    12:00 +32°C° 0 mm 5 mps 755 mmHg 39%
    13:00 +32°C° 0 mm 6 mps 755 mmHg 41%
    14:00 +30°C° 0 mm 6 mps 755 mmHg 42%
    15:00 +30°C° 0 mm 6 mps 755 mmHg 43%
    16:00 +29°C° 0 mm 5 mps 755 mmHg 45%
    17:00 +28°C° 0 mm 5 mps 754 mmHg 46%
    18:00 +26°C° 0 mm 4 mps 755 mmHg 54%
    19:00 +24°C° 0 mm 3 mps 755 mmHg 61%
    20:00 +23°C° 0 mm 2 mps 755 mmHg 68%
    21:00 +21°C° 0 mm 2 mps 755 mmHg 69%
    22:00 +21°C° 0 mm 2 mps 755 mmHg 70%
    23:00 +21°C° 0 mm 1 mps 755 mmHg 70%

    Tomorrow, 22 July, Monday

    Time Temperature Precipitation Wind Pressure Humidity
    00:00 +21°C° 0 mm 1 mps 755 mmHg 71%
    01:00 +21°C° 0 mm 1 mps 755 mmHg 71%
    02:00 +19°C° 0 mm 0 mps 754 mmHg 72%
    03:00 +19°C° 0 mm 0 mps 754 mmHg 72%
    04:00 +19°C° 0 mm 0 mps 754 mmHg 73%
    05:00 +21°C° 0 mm 1 mps 754 mmHg 73%
    06:00 +23°C° 0 mm 1 mps 754 mmHg 65%
    07:00 +26°C° 0 mm 1 mps 754 mmHg 56%
    08:00 +29°C° 0 mm 1 mps 754 mmHg 48%
    09:00 +30°C° 0 mm 2 mps 754 mmHg 45%
    10:00 +31°C° 0 mm 2 mps 754 mmHg 41%
    11:00 +33°C° 0 mm 3 mps 754 mmHg 38%
    12:00 +33°C° 0 mm 3 mps 753 mmHg 38%
    13:00 +33°C° 0 mm 3 mps 753 mmHg 38%
    14:00 +33°C° 0 mm 3 mps 753 mmHg 39%
    15:00 +31°C° 0 mm 3 mps 753 mmHg 42%
    16:00 +30°C° 0 mm 3 mps 752 mmHg 45%
    17:00 +29°C° 0 mm 2 mps 752 mmHg 48%
    18:00 +27°C° 0 mm 2 mps 752 mmHg 57%
    19:00 +25°C° 0 mm 2 mps 753 mmHg 65%
    20:00 +22°C° 0 mm 1 mps 753 mmHg 74%
    21:00 +22°C° 0 mm 1 mps 753 mmHg 75%
    22:00 +22°C° 0 mm 1 mps 753 mmHg 77%
    23:00 +21°C° 0 mm 1 mps 753 mmHg 78%

    Day after tomorrow, 23 July, Tuesday

    Time Temperature Precipitation Wind Pressure Humidity
    00:00 +21°C° 0 mm 1 mps 753 mmHg 80%
    01:00 +21°C° 0 mm 1 mps 752 mmHg 81%
    02:00 +20°C° 0 mm 1 mps 752 mmHg 83%
    03:00 +20°C° 0 mm 1 mps 752 mmHg 85%
    04:00 +20°C° 0 mm 1 mps 752 mmHg 87%
    05:00 +20°C° 0 mm 1 mps 752 mmHg 89%
    06:00 +22°C° 0 mm 1 mps 752 mmHg 80%
    07:00 +24°C° 0 mm 1 mps 752 mmHg 70%
    08:00 +26°C° 0 mm 2 mps 752 mmHg 61%
    09:00 +27°C° 0 mm 2 mps 752 mmHg 57%
    10:00 +28°C° 0 mm 2 mps 752 mmHg 54%
    11:00 +29°C° 0 mm 3 mps 752 mmHg 50%
    12:00 +28°C° 0 mm 3 mps 752 mmHg 50%
    13:00 +28°C° 0 mm 3 mps 752 mmHg 50%
    14:00 +28°C° 0 mm 4 mps 752 mmHg 50%
    15:00 +27°C° 0 mm 3 mps 752 mmHg 52%
    16:00 +26°C° 0 mm 3 mps 752 mmHg 54%
    17:00 +25°C° 0 mm 3 mps 751 mmHg 56%
    18:00 +24°C° 0 mm 2 mps 752 mmHg 63%
    19:00 +21°C° 0 mm 2 mps 752 mmHg 70%
    20:00 +20°C° 0 mm 1 mps 753 mmHg 76%
    21:00 +20°C° 0 mm 1 mps 753 mmHg 78%
    22:00 +20°C° 0 mm 1 mps 753 mmHg 79%
    23:00 +19°C° 0 mm 1 mps 753 mmHg 81%

    24 July, Wednesday

    Time Temperature Precipitation Wind Pressure Humidity
    00:00 +19°C° 0 mm 1 mps 752 mmHg 81%
    01:00 +19°C° 0 mm 1 mps 752 mmHg 81%
    02:00 +18°C° 0 mm 1 mps 752 mmHg 80%
    03:00 +19°C° 0 mm 1 mps 752 mmHg 79%
    04:00 +19°C° 0 mm 1 mps 752 mmHg 78%
    05:00 +19°C° 0 mm 1 mps 752 mmHg 77%
    06:00 +19°C° 0 mm 0 mps 752 mmHg 68%
    07:00 +21°C° 0 mm 0 mps 752 mmHg 60%
    08:00 +24°C° 0 mm 0 mps 752 mmHg 51%
    09:00 +27°C° 0 mm 1 mps 752 mmHg 47%
    10:00 +28°C° 0 mm 2 mps 752 mmHg 44%
    11:00 +30°C° 0 mm 2 mps 751 mmHg 40%
    12:00 +30°C° 0 mm 3 mps 751 mmHg 43%
    13:00 +30°C° 0 mm 3 mps 751 mmHg 47%
    14:00 +29°C° 0 mm 4 mps 750 mmHg 50%
    15:00 +28°C° 0 mm 3 mps 750 mmHg 55%
    16:00 +27°C° 0 mm 2 mps 750 mmHg 61%
    17:00 +26°C° 0 mm 2 mps 750 mmHg 67%
    18:00 +24°C° 0 mm 1 mps 751 mmHg 73%
    19:00 +23°C° 0 mm 1 mps 751 mmHg 79%
    20:00 +20°C° 0 mm 0 mps 751 mmHg 85%
    21:00 +21°C° 0 mm 1 mps 751 mmHg 85%
    22:00 +21°C° 0 mm 1 mps 751 mmHg 86%
    23:00 +21°C° 0 mm 1 mps 751 mmHg 86%

    25 July, Thursday

    Time Temperature Precipitation Wind Pressure Humidity
    00:00 +21°C° 0 mm 1 mps 750 mmHg 87%
    01:00 +21°C° 0 mm 1 mps 750 mmHg 88%
    02:00 +19°C° 0 mm 2 mps 750 mmHg 88%
    03:00 +19°C° 0 mm 2 mps 750 mmHg 89%
    04:00 +19°C° 0 mm 2 mps 750 mmHg 89%
    05:00 +20°C° 0 mm 2 mps 751 mmHg 90%
    06:00 +21°C° 0 mm 3 mps 751 mmHg 83%
    07:00 +22°C° 0 mm 3 mps 751 mmHg 75%
    08:00 +23°C° 0 mm 4 mps 751 mmHg 68%
    09:00 +25°C° 0 mm 4 mps 752 mmHg 65%
    10:00 +25°C° 0 mm 5 mps 752 mmHg 62%
    11:00 +26°C° 0 mm 5 mps 752 mmHg 60%
    12:00 +23°C° 0.1 mm 4 mps 752 mmHg 68%
    13:00 +22°C° 0.1 mm 3 mps 752 mmHg 76%
    14:00 +21°C° 0.1 mm 3 mps 752 mmHg 85%
    15:00 +22°C° 0 mm 3 mps 752 mmHg 79%
    16:00 +22°C° 0 mm 3 mps 753 mmHg 74%
    17:00 +24°C° 0 mm 3 mps 753 mmHg 68%
    18:00 +21°C° 0 mm 2 mps 753 mmHg 75%
    19:00 +20°C° 0 mm 2 mps 754 mmHg 82%
    20:00 +19°C° 0 mm 2 mps 754 mmHg 89%
    21:00 +18°C° 0 mm 2 mps 755 mmHg 89%
    22:00 +18°C° 0 mm 2 mps 755 mmHg 90%
    23:00 +17°C° 0 mm 2 mps 755 mmHg 90%

    26 July, Friday

    Time Temperature Precipitation Wind Pressure Humidity
    00:00 +17°C° 0 mm 2 mps 755 mmHg 90%
    01:00 +17°C° 0 mm 2 mps 755 mmHg 91%
    02:00 +16°C° 0 mm 2 mps 754 mmHg 91%
    03:00 +16°C° 0 mm 2 mps 755 mmHg 91%
    04:00 +16°C° 0 mm 2 mps 755 mmHg 91%
    05:00 +16°C° 0 mm 2 mps 755 mmHg 91%
    06:00 +18°C° 0 mm 2 mps 755 mmHg 81%
    07:00 +20°C° 0 mm 2 mps 755 mmHg 71%
    08:00 +23°C° 0 mm 2 mps 756 mmHg 61%
    09:00 +24°C° 0 mm 3 mps 755 mmHg 55%
    10:00 +26°C° 0 mm 5 mps 755 mmHg 48%
    11:00 +27°C° 0 mm 6 mps 755 mmHg 42%
    12:00 +27°C° 0 mm 6 mps 755 mmHg 42%
    13:00 +27°C° 0 mm 6 mps 755 mmHg 43%
    14:00 +26°C° 0 mm 7 mps 754 mmHg 44%
    15:00 +24°C° 0 mm 6 mps 754 mmHg 48%
    16:00 +23°C° 0 mm 6 mps 754 mmHg 52%
    17:00 +22°C° 0 mm 6 mps 754 mmHg 56%
    18:00 +21°C° 0 mm 5 mps 755 mmHg 62%
    19:00 +19°C° 0 mm 4 mps 755 mmHg 69%
    20:00 +18°C° 0 mm 4 mps 755 mmHg 75%
    21:00 +17°C° 0 mm 3 mps 755 mmHg 77%
    22:00 +17°C° 0 mm 3 mps 755 mmHg 78%
    23:00 +16°C° 0 mm 2 mps 755 mmHg 79%
    Show more